Location: Krasnoyarskiy Pitomnik
(51.1333°N, 71.6167°E)
Time: 06:11:08
(UTC+00:00)

Transit 4A - Pass Details

Date: 19 April 2024
Orbit: 871 x 971 km, 66.8° (Epoch: 28 May)

Event Time Altitude Azimuth Distance (km) Brightness Sun altitude
Rises 18:43:35 0° 308° (NW) 3,469 11.5 -27.0°
Reaches altitude 10° 18:48:19 10° 273° (W) 2,530 10.3 -27.1°
Maximum altitude 18:49:39 11° 260° (W) 2,473 10.1 -27.1°
Enters shadow 18:50:04 11° 255° (WSW) 2,479 10.0 -27.1°
